EN

Hourly Weather Topiele

Today, 16 April, Friday

Time Temperature Precipitation Wind Pressure Humidity
00:00 +2°C° 0.3 mm 5 mps 754 mmHg 96%
01:00 +2°C° 0 mm 5 mps 754 mmHg 96%
02:00 +2°C° 0.4 mm 5 mps 754 mmHg 96%
03:00 +2°C° 0.4 mm 5 mps 754 mmHg 96%
04:00 +1°C° 0.4 mm 5 mps 754 mmHg 96%
05:00 +1°C° 0.2 mm 5 mps 754 mmHg 96%
06:00 +1°C° 0.2 mm 5 mps 754 mmHg 95%
07:00 +1°C° 0 mm 5 mps 754 mmHg 95%
08:00 +2°C° 0.1 mm 5 mps 754 mmHg 94%
09:00 +2°C° 0.1 mm 5 mps 754 mmHg 94%
10:00 +2°C° 0.1 mm 5 mps 754 mmHg 93%
11:00 +2°C° 0.1 mm 5 mps 754 mmHg 93%
12:00 +3°C° 0.1 mm 5 mps 753 mmHg 92%
13:00 +3°C° 0.1 mm 5 mps 753 mmHg 92%
14:00 +3°C° 1.1 mm 5 mps 753 mmHg 93%
15:00 +2°C° 1.1 mm 5 mps 753 mmHg 94%
16:00 +2°C° 1.1 mm 5 mps 753 mmHg 95%
17:00 +2°C° 0.1 mm 5 mps 753 mmHg 95%
18:00 +3°C° 0.1 mm 4 mps 753 mmHg 96%
19:00 +3°C° 0.1 mm 4 mps 754 mmHg 96%
20:00 +3°C° 0 mm 4 mps 754 mmHg 96%
21:00 +4°C° 0 mm 3 mps 754 mmHg 96%
22:00 +4°C° 0 mm 3 mps 754 mmHg 97%
23:00 +4°C° 0 mm 3 mps 754 mmHg 97%

Tomorrow, 17 April, Saturday

Time Temperature Precipitation Wind Pressure Humidity
00:00 +4°C° 0 mm 3 mps 754 mmHg 97%
01:00 +5°C° 0 mm 3 mps 754 mmHg 97%
02:00 +5°C° 0 mm 3 mps 754 mmHg 97%
03:00 +5°C° 0 mm 3 mps 754 mmHg 97%
04:00 +5°C° 0 mm 4 mps 753 mmHg 97%
05:00 +6°C° 0 mm 4 mps 754 mmHg 95%
06:00 +6°C° 0 mm 4 mps 754 mmHg 93%
07:00 +6°C° 0 mm 4 mps 754 mmHg 90%
08:00 +7°C° 0 mm 4 mps 754 mmHg 87%
09:00 +7°C° 0 mm 4 mps 754 mmHg 85%
10:00 +9°C° 0 mm 3 mps 755 mmHg 82%
11:00 +9°C° 0 mm 3 mps 755 mmHg 81%
12:00 +10°C° 0 mm 3 mps 755 mmHg 79%
13:00 +10°C° 0 mm 3 mps 755 mmHg 78%
14:00 +10°C° 0 mm 3 mps 755 mmHg 77%
15:00 +11°C° 0 mm 3 mps 755 mmHg 75%
16:00 +11°C° 0 mm 3 mps 755 mmHg 74%
17:00 +10°C° 0 mm 3 mps 755 mmHg 78%
18:00 +9°C° 0 mm 3 mps 755 mmHg 82%
19:00 +8°C° 0 mm 3 mps 755 mmHg 86%
20:00 +8°C° 0 mm 3 mps 755 mmHg 88%
21:00 +7°C° 0 mm 3 mps 755 mmHg 90%
22:00 +7°C° 0 mm 3 mps 755 mmHg 92%
23:00 +5°C° 0 mm 3 mps 756 mmHg 92%

Day after tomorrow, 18 April, Sunday

Time Temperature Precipitation Wind Pressure Humidity
00:00 +5°C° 0 mm 3 mps 756 mmHg 93%
01:00 +6°C° 0 mm 2 mps 756 mmHg 93%
02:00 +6°C° 0 mm 2 mps 756 mmHg 94%
03:00 +6°C° 0 mm 2 mps 756 mmHg 95%
04:00 +5°C° 0 mm 2 mps 755 mmHg 95%
05:00 +5°C° 0 mm 3 mps 755 mmHg 92%
06:00 +7°C° 0 mm 3 mps 756 mmHg 89%
07:00 +8°C° 0 mm 3 mps 756 mmHg 86%
08:00 +10°C° 0 mm 3 mps 755 mmHg 80%
09:00 +11°C° 0 mm 3 mps 755 mmHg 73%
10:00 +13°C° 0 mm 3 mps 755 mmHg 67%
11:00 +13°C° 0.2 mm 3 mps 755 mmHg 67%
12:00 +13°C° 0.2 mm 3 mps 755 mmHg 67%
13:00 +14°C° 0.2 mm 3 mps 755 mmHg 67%
14:00 +14°C° 0.5 mm 4 mps 755 mmHg 68%
15:00 +14°C° 0.5 mm 4 mps 755 mmHg 69%
16:00 +14°C° 0.5 mm 4 mps 755 mmHg 70%
17:00 +13°C° 0.4 mm 4 mps 755 mmHg 75%
18:00 +11°C° 0.4 mm 3 mps 755 mmHg 80%
19:00 +10°C° 0.4 mm 3 mps 755 mmHg 85%
20:00 +10°C° 0 mm 3 mps 755 mmHg 87%
21:00 +9°C° 0 mm 3 mps 755 mmHg 88%
22:00 +9°C° 0 mm 3 mps 756 mmHg 89%
23:00 +9°C° 0 mm 3 mps 755 mmHg 89%

19 April, Monday

Time Temperature Precipitation Wind Pressure Humidity
00:00 +8°C° 0 mm 3 mps 755 mmHg 89%
01:00 +8°C° 0 mm 2 mps 755 mmHg 89%
02:00 +8°C° 0 mm 2 mps 755 mmHg 88%
03:00 +8°C° 0 mm 2 mps 755 mmHg 87%
04:00 +8°C° 0 mm 2 mps 755 mmHg 86%
05:00 +8°C° 0 mm 3 mps 755 mmHg 84%
06:00 +8°C° 0 mm 3 mps 755 mmHg 83%
07:00 +9°C° 0 mm 3 mps 755 mmHg 82%
08:00 +10°C° 0 mm 4 mps 755 mmHg 74%
09:00 +10°C° 0 mm 5 mps 755 mmHg 67%
10:00 +12°C° 0 mm 5 mps 754 mmHg 59%
11:00 +12°C° 0 mm 5 mps 754 mmHg 59%
12:00 +12°C° 0 mm 5 mps 754 mmHg 60%
13:00 +12°C° 0 mm 5 mps 753 mmHg 60%
14:00 +12°C° 0.1 mm 5 mps 753 mmHg 62%
15:00 +12°C° 0.1 mm 5 mps 753 mmHg 64%
16:00 +10°C° 0.1 mm 5 mps 753 mmHg 65%
17:00 +10°C° 0 mm 4 mps 753 mmHg 68%
18:00 +8°C° 0 mm 4 mps 753 mmHg 71%
19:00 +8°C° 0 mm 3 mps 752 mmHg 75%
20:00 +8°C° 0 mm 3 mps 752 mmHg 77%
21:00 +8°C° 0 mm 3 mps 752 mmHg 79%
22:00 +7°C° 0 mm 2 mps 752 mmHg 81%
23:00 +7°C° 0 mm 2 mps 752 mmHg 81%

20 April, Tuesday

Time Temperature Precipitation Wind Pressure Humidity
00:00 +7°C° 0 mm 2 mps 751 mmHg 82%
01:00 +7°C° 0 mm 2 mps 751 mmHg 83%
02:00 +7°C° 0 mm 2 mps 751 mmHg 84%
03:00 +6°C° 0 mm 2 mps 750 mmHg 86%
04:00 +5°C° 0 mm 3 mps 750 mmHg 87%
05:00 +7°C° 0 mm 3 mps 750 mmHg 84%
06:00 +7°C° 0 mm 3 mps 750 mmHg 82%
07:00 +8°C° 0 mm 3 mps 749 mmHg 80%
08:00 +8°C° 0.1 mm 4 mps 749 mmHg 74%
09:00 +10°C° 0.1 mm 4 mps 749 mmHg 67%
10:00 +10°C° 0.1 mm 5 mps 749 mmHg 61%
11:00 +10°C° 0.2 mm 5 mps 748 mmHg 61%
12:00 +10°C° 0.2 mm 5 mps 748 mmHg 61%
13:00 +10°C° 0.2 mm 6 mps 747 mmHg 61%
14:00 +10°C° 0.1 mm 6 mps 747 mmHg 63%
15:00 +9°C° 0.1 mm 6 mps 747 mmHg 65%
16:00 +9°C° 0.1 mm 6 mps 747 mmHg 67%
17:00 +8°C° 0 mm 6 mps 747 mmHg 72%
18:00 +7°C° 0 mm 5 mps 747 mmHg 78%
19:00 +5°C° 0 mm 4 mps 747 mmHg 83%
20:00 +5°C° 0 mm 4 mps 747 mmHg 85%
21:00 +5°C° 0 mm 4 mps 747 mmHg 86%
22:00 +5°C° 0 mm 3 mps 747 mmHg 87%
23:00 +4°C° 0 mm 3 mps 746 mmHg 89%

21 April, Wednesday

Time Temperature Precipitation Wind Pressure Humidity
00:00 +3°C° 0 mm 4 mps 746 mmHg 91%
01:00 +3°C° 0 mm 4 mps 746 mmHg 93%
02:00 +1°C° 0 mm 4 mps 746 mmHg 93%
03:00 +1°C° 0 mm 4 mps 746 mmHg 94%
04:00 0°C° 0 mm 4 mps 746 mmHg 95%
05:00 +1°C° 0 mm 4 mps 746 mmHg 90%
06:00 +3°C° 0 mm 4 mps 746 mmHg 84%
07:00 +4°C° 0 mm 4 mps 746 mmHg 79%
08:00 +5°C° 0 mm 5 mps 746 mmHg 74%
09:00 +7°C° 0 mm 5 mps 746 mmHg 69%
10:00 +8°C° 0 mm 6 mps 746 mmHg 64%
11:00 +8°C° 0 mm 5 mps 747 mmHg 64%
12:00 +8°C° 0 mm 5 mps 747 mmHg 64%
13:00 +8°C° 0 mm 5 mps 747 mmHg 63%
14:00 +8°C° 0 mm 4 mps 747 mmHg 62%
15:00 +9°C° 0 mm 3 mps 748 mmHg 61%
16:00 +10°C° 0 mm 3 mps 748 mmHg 59%
17:00 +9°C° 0 mm 2 mps 748 mmHg 62%
18:00 +8°C° 0 mm 2 mps 748 mmHg 66%
19:00 +8°C° 0 mm 1 mps 749 mmHg 69%
20:00 +8°C° 0 mm 1 mps 749 mmHg 71%
21:00 +7°C° 0 mm 2 mps 749 mmHg 72%
22:00 +6°C° 0 mm 2 mps 749 mmHg 74%
23:00 +5°C° 0 mm 3 mps 749 mmHg 78%
Show more

We Need Your Consent

Meteoprog and our Service Providers may store and access personal data such as cookies, device identifiers or other similar technologies on your device and process such data to personalise content and ads, as well as provide social media features and to analyse the traffic.

  • Store and/or access information on your device

    Cookies, device identifiers or other information can be stored or accessed on your device for the purposes indicated above.

  • Personalised ads and content, ad and content measurement, audience insights, and products development

    Ads and content can be personalised based on a profile. More data can be added to better personalise ads and content. Ad and content performance can be measured. Insights about the audience who saw the ads and content can be derived. Such data can be used to develop or improve user’s experience, systems and software.

By clicking ‘I Agree’ you will allow the use of indicated cookies, device identifiers, web beacons or other similar technologies. Your settings can be changed in the browser on your device.

For certain purposes, legitimate interests may be relied on, rather than consent. You can read more about this in our Privacy and Cookie Policy.